#timestamp,LO_Frequency,Hit 
1501974015.8,286047000.2,N
1501974035.6,286047001.9,N
1501974055.4,286047003.5,N
1501974075.2,286047002.6,N
1501974095.1,286046999.8,N
1501974096.0,286046999.8,N
1501974115.8,286047001.4,N
1501974135.6,286047001.6,N
1501974155.5,286047000.2,N
1501974175.3,286047002.0,N
1501974195.1,286047000.5,N
1501974215.9,286046999.6,N
1501974235.7,286046999.5,N
1501974255.5,286047001.1,N
1501974275.4,286047001.1,N
1501974295.2,286046998.4,N
1501974315.0,286046999.5,N
1501974315.9,286046999.5,N
1501974335.8,286046997.0,N
1501974355.6,286046997.1,N
1501974375.4,286046997.0,N
1501974395.3,286046997.4,N
1501974415.1,286046997.9,N
1501974416.0,286046997.9,N
1501974435.8,286046997.2,N
1501974455.7,286046997.7,N
1501974475.5,286046995.0,N
1501974495.3,286046998.0,N
1501974515.2,286046997.2,N
1501974535.9,286046995.5,N
1501974555.7,286047001.2,N
1501974575.5,286046998.9,N
1501974595.4,286046999.3,N
1501974615.2,286046998.8,N
1501974635.0,286046998.8,N
1501974635.9,286046998.8,N
1501974655.8,286047000.0,N
1501974675.6,286046998.5,N
1501974695.4,286047000.6,N
1501974715.3,286046999.0,N
1501974735.1,286046997.2,N
1501974736.0,286046997.2,N
1501974755.8,286046997.4,N
1501974775.7,286046995.4,P
1501974795.5,286046999.2,N
1501974815.3,286046998.7,N
1501974835.2,286046998.1,N
1501974855.9,286046998.9,N
1501974875.7,286046997.0,N
1501974895.6,286046997.2,N
1501974915.4,286046995.3,P
1501974935.2,286046996.9,N
1501974955.1,286046999.6,N
1501974956.0,286046999.6,N
1501974975.8,286046998.0,N
1501974995.6,286046998.0,N
1501975015.5,286046995.9,N
1501975035.3,286046993.3,P
1501975055.1,286046996.8,N
1501975075.9,286046997.8,N
1501975095.7,286046997.7,N
1501975115.5,286046999.5,N
1501975135.4,286047001.9,N
1501975155.2,286046998.9,N
1501975175.0,286046997.9,N
1501975175.9,286046997.9,N
1501975195.8,286046997.2,N
1501975215.6,286046997.4,N
1501975235.4,286046999.9,N
1501975255.3,286047000.6,N
1501975275.1,286047000.7,N
1501975276.0,286047000.7,N
1501975295.8,286046996.5,N
1501975315.7,286046999.5,N
1501975335.5,286046995.2,N
1501975355.3,286046995.6,N
1501975375.1,286046996.1,N
1501975395.9,286046997.8,N
1501975415.7,286046996.5,N
1501975435.5,286046997.2,N
1501975455.4,286046997.8,N
1501975475.2,286046994.2,P
1501975495.0,286046995.0,N
1501975495.9,286046995.0,P
1501975515.8,286046997.5,N
1501975535.6,286046997.5,N
1501975555.4,286046998.8,N
1501975575.3,286046998.5,N
1501975595.1,286046997.2,N
1501975615.8,286047000.8,N
1501975635.7,286046998.1,N
1501975655.5,286047001.0,N
1501975675.3,286047000.7,N
1501975695.2,286047000.2,N
1501975715.9,286046999.7,N
1501975735.7,286046999.8,N
1501975755.6,286047005.5,N
1501975775.4,286047006.0,N
1501975795.2,286047001.3,N
1501975815.0,286047005.4,N
1501975815.9,286047005.4,N
1501975835.8,286047006.0,N
1501975855.6,286047008.6,N
1501975875.4,286047006.6,N
1501975895.3,286047007.5,N
1501975915.1,286047006.0,N
1501975935.8,286047007.4,N
1501975955.7,286047007.5,N
1501975975.5,286047005.8,N
1501975995.3,286047005.2,N
1501976015.2,286047005.6,N
1501976035.9,286047005.1,N
1501976055.7,286047005.2,N
1501976075.6,286047004.1,N
1501976095.4,286047002.2,N
1501976115.2,286046999.7,N
1501976135.0,286047000.2,N
1501976136.0,286047000.2,N
1501976155.8,286047001.8,N
1501976175.6,286047002.9,N
1501976195.4,286047003.9,N
1501976215.3,286047003.2,N
1501976235.1,286047004.1,N
1501976255.8,286047007.6,N
1501976275.7,286047005.9,N
1501976295.5,286047004.2,N
1501976315.3,286047003.1,N
1501976335.2,286047006.0,N
1501976355.9,286047004.9,N
1501976375.7,286047004.7,N
1501976395.6,286047005.5,N
1501976415.4,286047005.2,N
1501976435.2,286047007.3,P
1501976455.1,286047000.8,N
1501976456.0,286047000.8,N
1501976475.8,286046998.1,N
1501976495.6,286047000.0,N
1501976515.5,286047002.5,N
1501976535.3,286047001.0,N
1501976555.1,286047001.1,N
1501976575.9,286047000.3,N
1501976595.7,286047003.9,N
1501976615.5,286047002.7,N
1501976635.4,286046999.9,N
1501976655.2,286046998.2,N
1501976675.0,286046998.2,N
1501976675.9,286046998.2,N
1501976695.7,286046996.6,N
1501976715.6,286047000.4,N
1501976735.4,286047001.5,N
1501976755.2,286047001.3,N
1501976775.1,286047001.7,N
1501976776.0,286047001.7,N
1501976795.8,286047002.0,N
1501976815.6,286047002.4,N
1501976835.5,286047002.3,N
1501976855.3,286047001.8,N
1501976875.1,286047001.5,N
1501976895.9,286047003.9,N
1501976915.7,286047004.2,N
1501976935.5,286047004.0,N
1501976955.4,286047004.2,N
1501976975.2,286047004.2,N
1501976995.0,286047005.5,N
1501976995.9,286047005.5,N
1501977015.8,286047004.7,N
1501977035.6,286047005.3,N
1501977055.4,286047006.4,N
1501977075.2,286047006.5,N
1501977095.1,286047008.4,P
1501977096.0,286047008.4,N
1501977115.8,286047008.8,P
1501977135.7,286047004.7,N
1501977155.5,286047002.9,N
1501977175.3,286047005.4,N
1501977195.2,286047006.4,N
1501977215.9,286047006.6,N
1501977235.7,286047006.8,P
1501977255.6,286047001.1,N
1501977275.4,286047000.7,N
1501977295.2,286046998.9,N
1501977315.0,286046999.1,N
1501977316.0,286046999.1,N
1501977335.8,286046998.2,N
1501977355.6,286046999.7,N
1501977375.4,286046999.1,N
1501977395.3,286046999.1,N
1501977415.1,286046998.2,N
1501977435.8,286047002.2,N
1501977455.7,286047001.2,N
1501977475.5,286047000.0,N
1501977495.3,286047001.1,N
1501977515.2,286046998.9,N
1501977535.9,286046995.2,N
1501977555.7,286046996.1,N
1501977575.6,286046997.3,N
1501977595.4,286046997.0,N
